Location: *
(17.3280°S, 114.7300°W)
Time: 07:41:55
(UTC+00:00)

Mugunghwa Rocket - Pass Details

Date: 05 August 2020
Orbit: 936 x 1372 km, 26.7° (Epoch: 20 September)

Event Time Altitude Azimuth Distance (km) Brightness Sun altitude
Exits shadow 12:24:23 42° 242° (WSW) 1,598 4.6 -23.6°
Maximum altitude 12:27:19 83° 159° (SSE) 1,208 4.4 -22.9°
Drops below altitude 10° 12:35:35 10° 71° (ENE) 3,285 7.9 -21.0°
Sets 12:38:37 0° 70° (ENE) 4,302 8.9 -20.3°
